| time (UTC) | temp F | wind direction | speed MPH | gust MPH | rain 1hr in | rain 24hr in | rain mn in | humidity % | barometer mb |
| 20260508001806 | 53 | 303 | 3.0 | 5.0 | 0.00 | 0.00 | 0.00 | 50 | 1012.4 |
| 20260508001302 | 53 | 325 | 2.0 | 3.0 | 0.00 | 0.00 | 0.00 | 51 | 1012.4 |
| 20260508000758 | 53 | 354 | 2.0 | 2.0 | 0.00 | 0.00 | 0.00 | 50 | 1012.3 |
| 20260508000257 | 54 | 295 | 3.0 | 5.0 | 0.00 | 0.00 | 0.00 | 50 | 1012.2 |
| 20260507235752 | 54 | 353 | 1.0 | 2.0 | 0.00 | 0.00 | 0.00 | 50 | 1012.2 |
| 20260507235249 | 54 | 332 | 1.0 | 2.0 | 0.00 | 0.00 | 0.00 | 50 | 1012.0 |
| 20260507234746 | 54 | 290 | 3.0 | 3.0 | 0.00 | 0.00 | 0.00 | 50 | 1012.0 |
| 20260507234242 | 55 | 287 | 4.0 | 5.0 | 0.00 | 0.00 | 0.00 | 50 | 1012.2 |
| 20260507233738 | 55 | 321 | 6.0 | 7.0 | 0.00 | 0.00 | 0.00 | 46 | 1012.3 |
| 20260507233237 | 55 | 271 | 5.0 | 6.0 | 0.00 | 0.00 | 0.00 | 46 | 1011.8 |
| 20260507232734 | 55 | 312 | 5.0 | 5.0 | 0.00 | 0.00 | 0.00 | 45 | 1011.8 |
| 20260507232231 | 56 | 341 | 4.0 | 5.0 | 0.00 | 0.00 | 0.00 | 46 | 1011.8 |
| 20260507231727 | 56 | 315 | 3.0 | 5.0 | 0.00 | 0.00 | 0.00 | 46 | 1011.9 |
| 20260507231224 | 56 | 292 | 3.0 | 3.0 | 0.00 | 0.00 | 0.00 | 44 | 1011.7 |
| 20260507230721 | 55 | 302 | 4.0 | 6.0 | 0.00 | 0.00 | 0.00 | 45 | 1011.9 |
| 20260507230219 | 55 | 309 | 3.0 | 3.0 | 0.00 | 0.00 | 0.00 | 45 | 1011.8 |
| 20260507225717 | 56 | 298 | 3.0 | 3.0 | 0.00 | 0.00 | 0.00 | 47 | 1011.6 |
| 20260507225215 | 56 | 298 | 3.0 | 3.0 | 0.00 | 0.00 | 0.00 | 44 | 1011.7 |
| 20260507224710 | 56 | 314 | 3.0 | 3.0 | 0.00 | 0.00 | 0.00 | 44 | 1011.5 |
| 20260507224207 | 57 | 324 | 3.0 | 3.0 | 0.00 | 0.00 | 0.00 | 44 | 1011.6 |
| 20260507223703 | 57 | 310 | 4.0 | 5.0 | 0.00 | 0.00 | 0.00 | 43 | 1011.4 |
| 20260507223200 | 57 | 297 | 5.0 | 7.0 | 0.00 | 0.00 | 0.00 | 43 | 1011.4 |
| 20260507222657 | 58 | 297 | 4.0 | 6.0 | 0.00 | 0.00 | 0.00 | 42 | 1011.3 |
| 20260507222153 | 57 | 325 | 3.0 | 5.0 | 0.00 | 0.00 | 0.00 | 41 | 1011.2 |
| 20260507221650 | 57 | 294 | 2.0 | 2.0 | 0.00 | 0.00 | 0.00 | 42 | 1011.3 |
| 20260507221146 | 57 | 295 | 3.0 | 3.0 | 0.00 | 0.00 | 0.00 | 42 | 1011.4 |
| 20260507220643 | 57 | 355 | 1.0 | 1.0 | 0.00 | 0.00 | 0.00 | 42 | 1011.2 |
| 20260507220142 | 59 | 305 | 4.0 | 5.0 | 0.00 | 0.00 | 0.00 | 42 | 1011.1 |
| 20260507215637 | 57 | 8 | 1.0 | 2.0 | 0.00 | 0.00 | 0.00 | 44 | 1010.9 |
| 20260507215135 | 59 | 295 | 3.0 | 3.0 | 0.00 | 0.00 | 0.00 | 41 | 1011.2 |
| 20260507214632 | 60 | 319 | 3.0 | 3.0 | 0.00 | 0.00 | 0.00 | 44 | 1010.8 |
| 20260507214128 | 59 | 316 | 3.0 | 5.0 | 0.00 | 0.00 | 0.00 | 40 | 1010.7 |
| 20260507213625 | 59 | 300 | 4.0 | 6.0 | 0.00 | 0.00 | 0.00 | 40 | 1010.9 |
| 20260507213122 | 59 | 322 | 4.0 | 5.0 | 0.00 | 0.00 | 0.00 | 40 | 1010.8 |
| 20260507212618 | 59 | 318 | 3.0 | 5.0 | 0.00 | 0.00 | 0.00 | 41 | 1010.7 |
| 20260507212115 | 58 | 342 | 3.0 | 3.0 | 0.00 | 0.00 | 0.00 | 42 | 1010.8 |
| 20260507211611 | 57 | 307 | 4.0 | 5.0 | 0.00 | 0.00 | 0.00 | 42 | 1010.8 |
| 20260507211107 | 58 | 294 | 3.0 | 5.0 | 0.00 | 0.00 | 0.00 | 42 | 1010.8 |
| 20260507210605 | 59 | 286 | 4.0 | 5.0 | 0.00 | 0.00 | 0.00 | 40 | 1010.9 |
| 20260507205558 | 59 | 302 | 3.0 | 3.0 | 0.00 | 0.00 | 0.00 | 39 | 1010.5 |
| 20260507205054 | 60 | 281 | 4.0 | 5.0 | 0.00 | 0.00 | 0.00 | 42 | 1010.3 |
| 20260507204551 | 60 | 326 | 3.0 | 3.0 | 0.00 | 0.00 | 0.00 | 43 | 1010.7 |
| 20260507204048 | 59 | 326 | 3.0 | 3.0 | 0.00 | 0.00 | 0.00 | 41 | 1010.1 |
| 20260507203546 | 59 | 351 | 2.0 | 2.0 | 0.00 | 0.00 | 0.00 | 43 | 1010.4 |
| 20260507203043 | 60 | 251 | 3.0 | 5.0 | 0.00 | 0.00 | 0.00 | 41 | 1010.5 |
| 20260507202539 | 58 | 325 | 1.0 | 2.0 | 0.00 | 0.00 | 0.00 | 42 | 1010.7 |
| 20260507202035 | 58 | 313 | 5.0 | 6.0 | 0.00 | 0.00 | 0.00 | 42 | 1010.5 |
| 20260507201531 | 60 | 329 | 2.0 | 3.0 | 0.00 | 0.00 | 0.00 | 40 | 1010.5 |
| 20260507201027 | 59 | 288 | 4.0 | 5.0 | 0.00 | 0.00 | 0.00 | 41 | 1010.7 |
| 20260507200523 | 61 | 338 | 3.0 | 3.0 | 0.00 | 0.00 | 0.00 | 42 | 1010.5 |
| 20260507200019 | 60 | 318 | 3.0 | 5.0 | 0.00 | 0.00 | 0.00 | 46 | 1010.9 |
| 20260507195517 | 60 | 296 | 3.0 | 3.0 | 0.00 | 0.00 | 0.00 | 40 | 1010.8 |
| 20260507195014 | 60 | 299 | 4.0 | 5.0 | 0.00 | 0.00 | 0.00 | 40 | 1011.0 |
| 20260507194510 | 60 | 270 | 3.0 | 3.0 | 0.00 | 0.00 | 0.00 | 39 | 1010.5 |
| 20260507194006 | 59 | 303 | 2.0 | 2.0 | 0.00 | 0.00 | 0.00 | 40 | 1010.9 |
| 20260507193504 | 59 | 355 | 3.0 | 3.0 | 0.00 | 0.00 | 0.00 | 40 | 1010.8 |
| 20260507193000 | 60 | 270 | 5.0 | 6.0 | 0.00 | 0.00 | 0.00 | 38 | 1011.1 |
| 20260507192456 | 60 | 317 | 1.0 | 2.0 | 0.00 | 0.00 | 0.00 | 42 | 1010.8 |
| 20260507191954 | 58 | 323 | 4.0 | 6.0 | 0.00 | 0.00 | 0.00 | 43 | 1011.1 |
| 20260507191449 | 59 | 334 | 3.0 | 3.0 | 0.00 | 0.00 | 0.00 | 40 | 1010.9 |
| 20260507190946 | 59 | 344 | 2.0 | 2.0 | 0.00 | 0.00 | 0.00 | 42 | 1010.9 |
| 20260507190444 | 58 | 285 | 4.0 | 5.0 | 0.00 | 0.00 | 0.00 | 42 | 1010.9 |
| 20260507185942 | 57 | 302 | 3.0 | 3.0 | 0.00 | 0.00 | 0.00 | 41 | 1010.9 |
| 20260507185439 | 58 | 253 | 4.0 | 5.0 | 0.00 | 0.00 | 0.00 | 42 | 1011.1 |
| 20260507184936 | 58 | 320 | 4.0 | 5.0 | 0.00 | 0.00 | 0.00 | 42 | 1011.0 |
| 20260507184434 | 59 | 308 | 4.0 | 5.0 | 0.00 | 0.00 | 0.00 | 41 | 1011.0 |
| 20260507183932 | 60 | 314 | 3.0 | 3.0 | 0.00 | 0.00 | 0.00 | 40 | 1011.1 |
| 20260507183428 | 59 | 272 | 2.0 | 2.0 | 0.00 | 0.00 | 0.00 | 41 | 1011.2 |
| 20260507182926 | 58 | 321 | 3.0 | 3.0 | 0.00 | 0.00 | 0.00 | 41 | 1011.1 |
| 20260507182421 | 60 | 312 | 3.0 | 3.0 | 0.00 | 0.00 | 0.00 | 46 | 1011.2 |
| 20260507181918 | 59 | 329 | 5.0 | 5.0 | 0.00 | 0.00 | 0.00 | 42 | 1011.2 |
| 20260507181414 | 59 | 320 | 2.0 | 3.0 | 0.00 | 0.00 | 0.00 | 44 | 1011.4 |
| 20260507180911 | 58 | 352 | 4.0 | 5.0 | 0.00 | 0.00 | 0.00 | 44 | 1011.4 |
| 20260507180407 | 58 | 296 | 4.0 | 5.0 | 0.00 | 0.00 | 0.00 | 46 | 1011.4 |
| 20260507175903 | 59 | 343 | 2.0 | 2.0 | 0.00 | 0.00 | 0.00 | 45 | 1011.4 |
| 20260507175400 | 59 | 294 | 3.0 | 3.0 | 0.00 | 0.00 | 0.00 | 49 | 1011.4 |
| 20260507174858 | 58 | 348 | 1.0 | 1.0 | 0.00 | 0.00 | 0.00 | 45 | 1011.5 |
| 20260507174355 | 60 | 226 | 1.0 | 1.0 | 0.00 | 0.00 | 0.00 | 46 | 1011.5 |
| 20260507173853 | 59 | 295 | 2.0 | 2.0 | 0.00 | 0.00 | 0.00 | 45 | 1011.5 |
| 20260507173349 | 59 | 311 | 3.0 | 5.0 | 0.00 | 0.00 | 0.00 | 47 | 1011.6 |
| 20260507172846 | 59 | 312 | 2.0 | 2.0 | 0.00 | 0.00 | 0.00 | 47 | 1011.7 |
| 20260507172342 | 58 | 240 | 3.0 | 5.0 | 0.00 | 0.00 | 0.00 | 46 | 1011.8 |
| 20260507171838 | 59 | 21 | 2.0 | 3.0 | 0.00 | 0.00 | 0.00 | 44 | 1011.8 |
| 20260507171335 | 58 | 268 | 4.0 | 6.0 | 0.00 | 0.00 | 0.00 | 47 | 1011.8 |
| 20260507170832 | 60 | 150 | 3.0 | 3.0 | 0.00 | 0.00 | 0.00 | 48 | 1011.6 |
| 20260507170329 | 59 | 350 | 2.0 | 3.0 | 0.00 | 0.00 | 0.00 | 46 | 1012.0 |
| 20260507165825 | 58 | 300 | 5.0 | 6.0 | 0.00 | 0.00 | 0.00 | 45 | 1011.9 |
| 20260507165321 | 57 | 188 | 2.0 | 2.0 | 0.00 | 0.00 | 0.00 | 50 | 1011.9 |
| 20260507164817 | 57 | 304 | 5.0 | 7.0 | 0.00 | 0.00 | 0.00 | 51 | 1012.1 |
| 20260507164314 | 57 | 343 | 4.0 | 6.0 | 0.00 | 0.00 | 0.00 | 51 | 1012.2 |
| 20260507163811 | 57 | 7 | 2.0 | 2.0 | 0.00 | 0.00 | 0.00 | 51 | 1012.1 |
| 20260507163309 | 56 | 306 | 2.0 | 2.0 | 0.00 | 0.00 | 0.00 | 54 | 1012.1 |
| 20260507162805 | 55 | 279 | 5.0 | 6.0 | 0.00 | 0.00 | 0.00 | 53 | 1012.0 |
| 20260507162301 | 55 | 338 | 1.0 | 1.0 | 0.00 | 0.00 | 0.00 | 54 | 1012.1 |
| 20260507161758 | 55 | 313 | 4.0 | 5.0 | 0.00 | 0.00 | 0.00 | 52 | 1012.3 |
| 20260507161254 | 55 | 334 | 2.0 | 2.0 | 0.00 | 0.00 | 0.00 | 55 | 1012.1 |
| 20260507160750 | 55 | 269 | 3.0 | 3.0 | 0.00 | 0.00 | 0.00 | 53 | 1012.4 |
| 20260507160247 | 57 | 346 | 2.0 | 2.0 | 0.00 | 0.00 | 0.00 | 51 | 1012.3 |
| 20260507155743 | 55 | 325 | 2.0 | 2.0 | 0.00 | 0.00 | 0.00 | 56 | 1012.3 |
| 20260507155239 | 55 | 302 | 3.0 | 3.0 | 0.00 | 0.00 | 0.00 | 52 | 1012.2 |
| 20260507154736 | 55 | 261 | 3.0 | 5.0 | 0.00 | 0.00 | 0.00 | 55 | 1012.7 |
| 20260507154234 | 55 | 1 | 2.0 | 2.0 | 0.00 | 0.00 | 0.00 | 54 | 1012.5 |
| 20260507153730 | 55 | 305 | 3.0 | 3.0 | 0.00 | 0.00 | 0.00 | 51 | 1012.6 |
| 20260507153226 | 55 | 306 | 4.0 | 5.0 | 0.00 | 0.00 | 0.00 | 51 | 1012.5 |
| 20260507152723 | 55 | 341 | 3.0 | 3.0 | 0.00 | 0.00 | 0.00 | 52 | 1012.5 |
| 20260507152219 | 54 | 275 | 2.0 | 2.0 | 0.00 | 0.00 | 0.00 | 54 | 1012.6 |
| 20260507151715 | 54 | 355 | 0.0 | 1.0 | 0.00 | 0.00 | 0.00 | 54 | 1012.9 |
| 20260507151212 | 54 | 336 | 3.0 | 3.0 | 0.00 | 0.00 | 0.00 | 57 | 1012.9 |
| 20260507150709 | 53 | 243 | 4.0 | 6.0 | 0.00 | 0.00 | 0.00 | 56 | 1012.9 |
| 20260507150206 | 53 | 321 | 2.0 | 2.0 | 0.00 | 0.00 | 0.00 | 55 | 1013.1 |
| 20260507145701 | 53 | 327 | 4.0 | 5.0 | 0.00 | 0.00 | 0.00 | 56 | 1013.1 |
| 20260507145158 | 53 | 302 | 3.0 | 3.0 | 0.00 | 0.00 | 0.00 | 56 | 1013.0 |
| 20260507144655 | 54 | 279 | 3.0 | 5.0 | 0.00 | 0.00 | 0.00 | 56 | 1013.2 |
| 20260507144153 | 54 | 267 | 2.0 | 2.0 | 0.00 | 0.00 | 0.00 | 55 | 1013.1 |
| 20260507143649 | 53 | 291 | 5.0 | 6.0 | 0.00 | 0.00 | 0.00 | 57 | 1013.2 |
| 20260507143147 | 53 | 290 | 2.0 | 2.0 | 0.00 | 0.00 | 0.00 | 59 | 1013.3 |
| 20260507142642 | 52 | 358 | 1.0 | 2.0 | 0.00 | 0.00 | 0.00 | 60 | 1013.3 |
| 20260507142139 | 52 | 281 | 2.0 | 3.0 | 0.00 | 0.00 | 0.00 | 59 | 1013.2 |
| 20260507141635 | 52 | 310 | 1.0 | 2.0 | 0.00 | 0.00 | 0.00 | 63 | 1013.5 |
| 20260507141132 | 51 | 73 | 1.0 | 1.0 | 0.00 | 0.00 | 0.00 | 65 | 1013.7 |
| 20260507140629 | 51 | 42 | 0.0 | 0.0 | 0.00 | 0.00 | 0.00 | 67 | 1013.5 |
| 20260507140126 | 51 | 14 | 0.0 | 0.0 | 0.00 | 0.00 | 0.00 | 67 | 1013.7 |
| 20260507135623 | 50 | 324 | 2.0 | 2.0 | 0.00 | 0.00 | 0.00 | 67 | 1014.1 |
| 20260507135121 | 50 | 304 | 4.0 | 5.0 | 0.00 | 0.00 | 0.00 | 70 | 1013.8 |
| 20260507134617 | 50 | 10 | 0.0 | 0.0 | 0.00 | 0.00 | 0.00 | 70 | 1013.7 |
| 20260507134113 | 50 | 334 | 2.0 | 2.0 | 0.00 | 0.00 | 0.00 | 72 | 1013.9 |
| 20260507133609 | 49 | 355 | 1.0 | 2.0 | 0.00 | 0.00 | 0.00 | 75 | 1013.9 |
| 20260507133107 | 48 | 315 | 3.0 | 3.0 | 0.00 | 0.00 | 0.00 | 75 | 1014.0 |
| 20260507132603 | 48 | 37 | 0.0 | 0.0 | 0.00 | 0.00 | 0.00 | 79 | 1013.9 |
| 20260507132100 | 48 | 39 | 0.0 | 0.0 | 0.00 | 0.00 | 0.00 | 79 | 1013.9 |
| 20260507131557 | 48 | 60 | 1.0 | 1.0 | 0.00 | 0.00 | 0.00 | 80 | 1013.8 |
| 20260507131054 | 47 | 53 | 0.0 | 1.0 | 0.00 | 0.00 | 0.00 | 81 | 1014.3 |
| 20260507130551 | 47 | 54 | 0.0 | 1.0 | 0.00 | 0.00 | 0.00 | 82 | 1014.0 |
| 20260507130049 | 46 | 25 | 1.0 | 2.0 | 0.00 | 0.00 | 0.00 | 84 | 1014.0 |
| 20260507125547 | 46 | 58 | 0.0 | 1.0 | 0.00 | 0.00 | 0.00 | 89 | 1013.9 |
| 20260507125044 | 44 | 72 | 1.0 | 1.0 | 0.00 | 0.00 | 0.00 | 94 | 1013.9 |
| 20260507124540 | 44 | 60 | 0.0 | 1.0 | 0.00 | 0.00 | 0.00 | 97 | 1013.9 |
| 20260507124039 | 43 | 58 | 0.0 | 1.0 | 0.00 | 0.00 | 0.00 | 99 | 1014.0 |
| 20260507123536 | 42 | 28 | 0.0 | 0.0 | 0.00 | 0.00 | 0.00 | 99 | 1014.0 |
| 20260507123033 | 41 | 47 | 0.0 | 0.0 | 0.00 | 0.00 | 0.00 | 99 | 1014.1 |
| 20260507122528 | 41 | 50 | 0.0 | 0.0 | 0.00 | 0.00 | 0.00 | 99 | 1014.0 |
| 20260507122024 | 41 | 44 | 0.0 | 0.0 | 0.00 | 0.00 | 0.00 | 99 | 1013.9 |
| 20260507121520 | 41 | 44 | 0.0 | 0.0 | 0.00 | 0.00 | 0.00 | 99 | 1014.2 |
| 20260507121016 | 40 | 34 | 0.0 | 0.0 | 0.00 | 0.00 | 0.00 | 99 | 1014.2 |
| 20260507120512 | 40 | 34 | 0.0 | 0.0 | 0.00 | 0.00 | 0.00 | 99 | 1014.0 |
| 20260507120010 | 39 | 34 | 0.0 | 0.0 | 0.00 | 0.00 | 0.00 | 99 | 1013.9 |
| 20260507115505 | 39 | 34 | 0.0 | 0.0 | 0.00 | 0.00 | 0.00 | 99 | 1014.2 |
| 20260507115001 | 39 | 34 | 0.0 | 0.0 | 0.00 | 0.00 | 0.00 | 99 | 1014.1 |
| 20260507114457 | 38 | 34 | 0.0 | 0.0 | 0.00 | 0.00 | 0.00 | 99 | 1014.1 |
| 20260507113955 | 37 | 34 | 0.0 | 0.0 | 0.00 | 0.00 | 0.00 | 99 | 1014.1 |
| 20260507113452 | 37 | 34 | 0.0 | 0.0 | 0.00 | 0.00 | 0.00 | 99 | 1014.2 |
| 20260507112949 | 37 | 34 | 0.0 | 0.0 | 0.00 | 0.00 | 0.00 | 99 | 1014.0 |
| 20260507112447 | 36 | 34 | 0.0 | 0.0 | 0.00 | 0.00 | 0.00 | 99 | 1013.9 |
| 20260507111943 | 36 | 34 | 0.0 | 0.0 | 0.00 | 0.00 | 0.00 | 99 | 1014.0 |
| 20260507111441 | 35 | 34 | 0.0 | 0.0 | 0.00 | 0.00 | 0.00 | 99 | 1013.9 |
| 20260507110937 | 35 | 34 | 0.0 | 0.0 | 0.00 | 0.00 | 0.00 | 99 | 1013.9 |
| 20260507110433 | 0 | 0.0 | 0.0 | 0.00 | 0.00 | 0.00 | 1013.8 | ||
| 20260507105930 | 34 | 34 | 0.0 | 0.0 | 0.00 | 0.00 | 0.00 | 99 | 1013.9 |
| 20260507105427 | 34 | 34 | 0.0 | 0.0 | 0.00 | 0.00 | 0.00 | 99 | 1013.7 |
| 20260507104923 | 34 | 34 | 0.0 | 0.0 | 0.00 | 0.00 | 0.00 | 99 | 1013.7 |
| 20260507104421 | 35 | 34 | 0.0 | 0.0 | 0.00 | 0.00 | 0.00 | 99 | 1014.0 |
| 20260507103916 | 35 | 34 | 0.0 | 0.0 | 0.00 | 0.00 | 0.00 | 99 | 1013.4 |
| 20260507103413 | 0 | 0.0 | 0.0 | 0.00 | 0.00 | 0.00 | 1013.5 | ||
| 20260507102909 | 0 | 0.0 | 0.0 | 0.00 | 0.00 | 0.00 | 1013.4 | ||
| 20260507102406 | 35 | 34 | 0.0 | 0.0 | 0.00 | 0.00 | 0.00 | 99 | 1013.5 |
| 20260507101902 | 35 | 34 | 0.0 | 0.0 | 0.00 | 0.00 | 0.00 | 99 | 1013.5 |
| 20260507101357 | 0 | 0.0 | 0.0 | 0.00 | 0.00 | 0.00 | 1013.4 | ||
| 20260507100854 | 0 | 0.0 | 0.0 | 0.00 | 0.00 | 0.00 | 1013.4 | ||
| 20260507100352 | 0 | 0.0 | 0.0 | 0.00 | 0.00 | 0.00 | 1013.5 | ||
| 20260507095850 | 0 | 0.0 | 0.0 | 0.00 | 0.00 | 0.00 | 1013.4 | ||
| 20260507095346 | 0 | 0.0 | 0.0 | 0.00 | 0.00 | 0.00 | 1013.5 | ||
| 20260507094844 | 0 | 0.0 | 0.0 | 0.00 | 0.00 | 0.00 | 1013.5 | ||
| 20260507094339 | 35 | 34 | 0.0 | 0.0 | 0.00 | 0.00 | 0.00 | 99 | 1013.2 |
| 20260507093837 | 35 | 34 | 0.0 | 0.0 | 0.00 | 0.00 | 0.00 | 99 | 1013.3 |
| 20260507093335 | 35 | 34 | 0.0 | 0.0 | 0.00 | 0.00 | 0.00 | 99 | 1013.3 |
| 20260507092833 | 0 | 0.0 | 0.0 | 0.00 | 0.00 | 0.00 | 1013.5 | ||
| 20260507092329 | 36 | 34 | 0.0 | 0.0 | 0.00 | 0.00 | 0.00 | 99 | 1013.2 |
| 20260507091825 | 36 | 34 | 0.0 | 0.0 | 0.00 | 0.00 | 0.00 | 99 | 1013.5 |
| 20260507091322 | 36 | 34 | 0.0 | 0.0 | 0.00 | 0.00 | 0.00 | 99 | 1013.4 |
| 20260507090818 | 36 | 34 | 0.0 | 0.0 | 0.00 | 0.00 | 0.00 | 99 | 1013.5 |
| 20260507090314 | 36 | 34 | 0.0 | 0.0 | 0.00 | 0.00 | 0.00 | 99 | 1013.5 |
| 20260507085811 | 36 | 34 | 0.0 | 0.0 | 0.00 | 0.00 | 0.00 | 99 | 1013.7 |
| 20260507085308 | 36 | 34 | 0.0 | 0.0 | 0.00 | 0.00 | 0.00 | 99 | 1013.5 |
| 20260507084806 | 37 | 33 | 0.0 | 0.0 | 0.00 | 0.00 | 0.00 | 99 | 1013.4 |
| 20260507084301 | 37 | 33 | 0.0 | 0.0 | 0.00 | 0.00 | 0.00 | 99 | 1013.4 |
| 20260507083759 | 37 | 34 | 0.0 | 0.0 | 0.00 | 0.00 | 0.00 | 99 | 1013.3 |
| 20260507083256 | 37 | 34 | 0.0 | 0.0 | 0.00 | 0.00 | 0.00 | 99 | 1013.5 |
| 20260507082752 | 37 | 33 | 0.0 | 0.0 | 0.00 | 0.00 | 0.00 | 98 | 1013.5 |
| 20260507082248 | 37 | 33 | 0.0 | 0.0 | 0.00 | 0.00 | 0.00 | 98 | 1013.5 |
| 20260507081745 | 37 | 33 | 0.0 | 0.0 | 0.00 | 0.00 | 0.00 | 98 | 1013.5 |
| 20260507081240 | 37 | 33 | 0.0 | 0.0 | 0.00 | 0.00 | 0.00 | 98 | 1013.4 |
| 20260507080737 | 38 | 33 | 0.0 | 0.0 | 0.00 | 0.00 | 0.00 | 98 | 1013.5 |
| 20260507080234 | 38 | 33 | 0.0 | 0.0 | 0.00 | 0.00 | 0.00 | 98 | 1013.7 |
| 20260507075729 | 0 | 0.0 | 0.0 | 0.00 | 0.00 | 0.00 | 1013.7 | ||
| 20260507075225 | 0 | 0.0 | 0.0 | 0.00 | 0.00 | 0.00 | 1013.8 | ||
| 20260507074722 | 0 | 0.0 | 0.0 | 0.00 | 0.00 | 0.00 | 1013.9 | ||
| 20260507074220 | 39 | 13 | 0.0 | 0.0 | 0.00 | 0.00 | 0.00 | 97 | 1013.7 |
| 20260507073716 | 39 | 13 | 0.0 | 0.0 | 0.00 | 0.00 | 0.00 | 97 | 1013.7 |
| 20260507073213 | 39 | 11 | 1.0 | 1.0 | 0.00 | 0.00 | 0.00 | 96 | 1013.7 |
| 20260507072711 | 0 | 0.0 | 0.0 | 0.00 | 0.00 | 0.00 | 1013.4 | ||
| 20260507072208 | 0 | 0.0 | 0.0 | 0.00 | 0.00 | 0.00 | 1013.7 | ||
| 20260507071705 | 0 | 0.0 | 0.0 | 0.00 | 0.00 | 0.00 | 1013.5 | ||
| 20260507071202 | 0 | 0.0 | 0.0 | 0.00 | 0.00 | 0.00 | 1014.0 | ||
| 20260507070659 | 40 | 44 | 0.0 | 0.0 | 0.00 | 0.00 | 0.00 | 95 | 1013.7 |
| 20260507070156 | 40 | 44 | 0.0 | 0.0 | 0.00 | 0.00 | 0.00 | 95 | 1013.9 |
| 20260507065652 | 0 | 0.0 | 0.0 | 0.00 | 0.00 | 0.00 | 1014.0 | ||
| 20260507065149 | 41 | 44 | 0.0 | 0.0 | 0.00 | 0.00 | 0.00 | 94 | 1013.9 |
| 20260507064646 | 41 | 44 | 0.0 | 0.0 | 0.00 | 0.00 | 0.00 | 94 | 1013.5 |
| 20260507064145 | 0 | 0.0 | 0.0 | 0.00 | 0.00 | 0.00 | 1013.8 | ||
| 20260507063642 | 0 | 0.0 | 0.0 | 0.00 | 0.00 | 0.00 | 1013.9 | ||
| 20260507063139 | 0 | 0.0 | 0.0 | 0.00 | 0.00 | 0.00 | 1013.8 | ||
| 20260507062636 | 0 | 0.0 | 0.0 | 0.00 | 0.00 | 0.00 | 1013.9 | ||
| 20260507062133 | 43 | 44 | 0.0 | 0.0 | 0.00 | 0.00 | 0.00 | 92 | 1013.9 |
| 20260507061631 | 43 | 44 | 0.0 | 0.0 | 0.00 | 0.00 | 0.00 | 92 | 1013.9 |
| 20260507061129 | 43 | 44 | 0.0 | 0.0 | 0.00 | 0.00 | 0.00 | 91 | 1014.0 |
| 20260507060627 | 43 | 44 | 0.0 | 0.0 | 0.00 | 0.00 | 0.00 | 89 | 1013.9 |
| 20260507060123 | 43 | 44 | 0.0 | 0.0 | 0.00 | 0.00 | 0.00 | 89 | 1014.3 |
| 20260507055618 | 0 | 0.0 | 0.0 | 0.00 | 0.00 | 0.00 | 1014.1 | ||
| 20260507055114 | 0 | 0.0 | 0.0 | 0.00 | 0.00 | 0.00 | 1014.1 | ||
| 20260507054610 | 0 | 0.0 | 0.0 | 0.00 | 0.00 | 0.00 | 1014.0 | ||
| 20260507054108 | 0 | 0.0 | 0.0 | 0.00 | 0.00 | 0.00 | 1014.2 | ||
| 20260507053606 | 0 | 0.0 | 0.0 | 0.00 | 0.00 | 0.00 | 1014.4 | ||
| 20260507053104 | 0 | 0.0 | 0.0 | 0.00 | 0.00 | 0.00 | 1014.4 | ||
| 20260507052602 | 0 | 0.0 | 0.0 | 0.00 | 0.00 | 0.00 | 1014.2 | ||
| 20260507052058 | 0 | 0.0 | 0.0 | 0.00 | 0.00 | 0.00 | 1014.5 | ||
| 20260507051555 | 0 | 0.0 | 0.0 | 0.00 | 0.00 | 0.00 | 1014.5 | ||
| 20260507051052 | 0 | 0.0 | 0.0 | 0.00 | 0.00 | 0.00 | 1014.6 | ||
| 20260507050549 | 0 | 0.0 | 0.0 | 0.00 | 0.00 | 0.00 | 1014.6 | ||
| 20260507050046 | 45 | 44 | 0.0 | 0.0 | 0.00 | 0.50 | 0.50 | 86 | 1014.7 |
| 20260507045542 | 45 | 44 | 0.0 | 0.0 | 0.00 | 0.50 | 0.50 | 85 | 1014.6 |
| 20260507045039 | 45 | 44 | 0.0 | 0.0 | 0.00 | 0.50 | 0.50 | 85 | 1014.8 |
| 20260507044536 | 0 | 0.0 | 0.0 | 0.00 | 0.00 | 0.00 | 1014.7 | ||
| 20260507044033 | 0 | 0.0 | 0.0 | 0.00 | 0.00 | 0.00 | 1014.6 | ||
| 20260507043528 | 0 | 0.0 | 0.0 | 0.00 | 0.00 | 0.00 | 1014.7 | ||
| 20260507043026 | 0 | 0.0 | 0.0 | 0.00 | 0.00 | 0.00 | 1014.7 | ||
| 20260507042522 | 45 | 44 | 0.0 | 0.0 | 0.00 | 0.50 | 0.50 | 83 | 1014.5 |
| 20260507042017 | 45 | 44 | 0.0 | 0.0 | 0.00 | 0.50 | 0.50 | 83 | 1014.6 |
| 20260507041515 | 45 | 44 | 0.0 | 0.0 | 0.00 | 0.50 | 0.50 | 80 | 1014.5 |
| 20260507041012 | 45 | 44 | 0.0 | 0.0 | 0.00 | 0.50 | 0.50 | 81 | 1014.5 |
| 20260507040508 | 46 | 44 | 0.0 | 0.0 | 0.00 | 0.50 | 0.50 | 83 | 1014.4 |
| 20260507040004 | 46 | 44 | 0.0 | 0.0 | 0.00 | 0.50 | 0.50 | 80 | 1014.4 |
| 20260507035500 | 46 | 44 | 0.0 | 0.0 | 0.00 | 0.50 | 0.50 | 79 | 1014.5 |
| 20260507034957 | 45 | 44 | 0.0 | 0.0 | 0.00 | 0.50 | 0.50 | 79 | 1014.5 |
| 20260507034454 | 45 | 44 | 0.0 | 0.0 | 0.00 | 0.50 | 0.50 | 79 | 1014.7 |
| 20260507033952 | 45 | 44 | 0.0 | 0.0 | 0.00 | 0.50 | 0.50 | 80 | 1014.6 |
| 20260507033449 | 45 | 44 | 0.0 | 0.0 | 0.00 | 0.50 | 0.50 | 81 | 1014.3 |
| 20260507032946 | 45 | 44 | 0.0 | 0.0 | 0.00 | 0.50 | 0.50 | 81 | 1014.4 |
| 20260507032443 | 46 | 44 | 0.0 | 0.0 | 0.00 | 0.50 | 0.50 | 82 | 1014.1 |
| 20260507031939 | 46 | 44 | 0.0 | 0.0 | 0.00 | 0.50 | 0.50 | 78 | 1014.2 |
| 20260507031436 | 46 | 44 | 0.0 | 0.0 | 0.00 | 0.50 | 0.50 | 78 | 1014.3 |
| 20260507030933 | 46 | 44 | 0.0 | 0.0 | 0.00 | 0.50 | 0.50 | 78 | 1014.3 |
| 20260507030430 | 46 | 44 | 0.0 | 0.0 | 0.00 | 0.50 | 0.50 | 78 | 1014.3 |
| 20260507025927 | 46 | 44 | 0.0 | 0.0 | 0.00 | 0.50 | 0.50 | 77 | 1014.5 |
| 20260507025424 | 46 | 44 | 0.0 | 0.0 | 0.00 | 0.50 | 0.50 | 77 | 1014.3 |
| 20260507024922 | 46 | 44 | 0.0 | 0.0 | 0.00 | 0.50 | 0.50 | 77 | 1014.1 |
| 20260507024419 | 46 | 44 | 0.0 | 0.0 | 0.00 | 0.50 | 0.50 | 77 | 1014.1 |
| 20260507023915 | 46 | 44 | 0.0 | 0.0 | 0.00 | 0.50 | 0.50 | 78 | 1013.9 |
| 20260507023412 | 46 | 44 | 0.0 | 0.0 | 0.00 | 0.50 | 0.50 | 80 | 1014.1 |
| 20260507022909 | 46 | 44 | 0.0 | 0.0 | 0.00 | 0.50 | 0.50 | 78 | 1013.9 |
| 20260507022406 | 47 | 44 | 0.0 | 0.0 | 0.00 | 0.50 | 0.50 | 78 | 1013.8 |
| 20260507021902 | 47 | 44 | 0.0 | 0.0 | 0.00 | 0.50 | 0.50 | 77 | 1013.8 |
| 20260507021357 | 47 | 44 | 0.0 | 0.0 | 0.00 | 0.50 | 0.50 | 76 | 1013.8 |
| 20260507020855 | 47 | 44 | 0.0 | 0.0 | 0.00 | 0.50 | 0.50 | 75 | 1013.8 |
| 20260507020351 | 47 | 44 | 0.0 | 0.0 | 0.00 | 0.50 | 0.50 | 74 | 1013.9 |
| 20260507015848 | 47 | 44 | 0.0 | 0.0 | 0.00 | 0.50 | 0.50 | 76 | 1013.7 |
| 20260507015347 | 47 | 44 | 0.0 | 0.0 | 0.00 | 0.50 | 0.50 | 76 | 1013.5 |
| 20260507014844 | 47 | 44 | 0.0 | 0.0 | 0.00 | 0.50 | 0.50 | 77 | 1013.8 |
| 20260507014339 | 47 | 44 | 0.0 | 0.0 | 0.00 | 0.50 | 0.50 | 75 | 1013.5 |
| 20260507013836 | 47 | 44 | 0.0 | 0.0 | 0.00 | 0.50 | 0.50 | 74 | 1013.4 |
| 20260507013333 | 48 | 44 | 0.0 | 0.0 | 0.00 | 0.50 | 0.50 | 72 | 1013.2 |
| 20260507012831 | 48 | 44 | 0.0 | 0.0 | 0.00 | 0.50 | 0.50 | 71 | 1013.0 |
| 20260507012326 | 48 | 44 | 0.0 | 0.0 | 0.00 | 0.50 | 0.50 | 69 | 1013.2 |
| 20260507011824 | 48 | 44 | 0.0 | 0.0 | 0.00 | 0.50 | 0.50 | 68 | 1013.0 |
| 20260507011320 | 48 | 44 | 0.0 | 0.0 | 0.00 | 0.50 | 0.50 | 68 | 1013.0 |
| 20260507010820 | 48 | 44 | 0.0 | 0.0 | 0.00 | 0.50 | 0.50 | 68 | 1013.3 |
| 20260507010316 | 48 | 44 | 0.0 | 0.0 | 0.00 | 0.50 | 0.50 | 73 | 1013.3 |
| 20260507005813 | 49 | 44 | 0.0 | 0.0 | 0.00 | 0.50 | 0.50 | 73 | 1013.0 |
| 20260507005310 | 49 | 55 | 1.0 | 1.0 | 0.00 | 0.50 | 0.50 | 67 | 1013.2 |
| 20260507004801 | 50 | 18 | 0.0 | 1.0 | 0.00 | 0.50 | 0.50 | 74 | 1013.3 |
| 20260507004258 | 50 | 40 | 0.0 | 0.0 | 0.00 | 0.50 | 0.50 | 69 | 1013.4 |
| 20260507003755 | 50 | 357 | 0.0 | 1.0 | 0.00 | 0.50 | 0.50 | 70 | 1013.8 |
| 20260507003250 | 50 | 357 | 0.0 | 0.0 | 0.00 | 0.50 | 0.50 | 74 | 1013.5 |
| 20260507002746 | 50 | 356 | 0.0 | 0.0 | 0.00 | 0.50 | 0.50 | 73 | 1013.7 |
| 20260507002242 | 50 | 356 | 0.0 | 0.0 | 0.00 | 0.50 | 0.50 | 74 | 1013.4 |